DMSP 5D-2 F13 DEB, 40497

Orbit data source: Space-Track

DMSP 5D-2 F13 DEB, 40497 is space debris in SSO originally from a launch on Fri, 24 Mar 1995 UTC launched from the Air Force Western Test Range (AFWTR). Debris objects in space refer to the collection of defunct objects orbiting the Earth. Examples of debris include non-operational satellites, rocket bodies, and fragments generated from explosions, collisions, or faulty payload assembly.

Loading next visibility...
Identifier
40497, 1995-015CL
Orbit
SSO
Country
Flag of USUS
Related business
Manufacturer
Unknown
Mission
Spacecraft
Bus & Motor
Unknown
Mass
Unknown
Launch date (UTC)
1995-03-24 (31 years ago)
Launch vehicle
Unknown
Launch site
Air Force Western Test Range (AFWTR)
Object type
Payload
Rocket body
Debris
Shape & HBR
Unknown shape, 0.1 m
Radar Cross Section
Small (<0.1 m²)

Expand to show TLE details & history
Last TLE update: 2 days ago

TLE from 2 days ago
0 DMSP 5D-2 F13 DEB
1 40497U 95015CL  25348.35468558  .00006387  00000-0  20259-2 0  9994
2 40497  98.6874  22.2677 0004989 184.8105 175.3035 14.40355207558778
Epoch: 2025-12-14T08:30Z
TLE epoch observation values (Epoch: 2025-12-14T08:30:44.834Z)
Latitude
-0.00007°
Longitude
171.3121°
Altitude
763.817 km
Speed
7.471 km/s
True Right ascension
01h 29m 04s
True Declination
0° 00' 00"
Sunlit
Object was in full shadow at epoch
Visualization orbit readout
Latitude
Unknown
Longitude
Unknown
Altitude
Unknown
Speed
Unknown
Apparent Right ascension
Unknown
Apparent Declination
Unknown
Sunlit
N/A
Visualization observer readout
Local Sidereal Time
05:08:12
Azimuth
Unknown
Elevation
Unknown
Doppler factor
Unknown
Orbital elements
Apogee altitude
758.014 km
Perigee altitude
750.897 km
Semi-major axis
7,132.592 km
Eccentricity
0.0005
Inclination
98.6874°
RAAN
22.2677°
Arg. of periapsis
184.8105°
True anomaly
175.30818°
Mean anomaly
175.3035°
Eccentric anomaly
175.30584°
Mean motion
3.60306 °/min
Orbital period
99.91 mins
BSTAR
0.0020259
Loading maneuver chart data...
Computing Atmospheric mass density...

Documentation

Showing up to 5 results
|